Flag for United Kingdom Past Weather in Kingston upon Hull, England, United Kingdom — Yesterday and Last 2 Weeks

Now
61 °F

Passing clouds.


Feels Like: 61 °F
Forecast: 56 / 67 °F
Wind: 6 mph from Southwest

Location: Humberside

Current Time: Jul 28, 2016 at 9:41:43 AM

Latest Report: Jul 28, 2016 at 9:20 AM


Visibility: N/A

Pressure: 29.95 "Hg

Humidity: 83%

Dew Point: 55 °F

Location of Kingston upon HullLocation

Past Weather in Kingston upon Hull — Graph

°F

Kingston upon Hull Temperature Yesterday

Maximum temperature yesterday: 70 °F (at 11:50 AM)
Minimum temperature yesterday: 54 °F (at 11:50 PM)
Average temperature yesterday: 64 °F

High & Low Weather Summary for the Past Weeks

 TemperatureHumidityPressure
High84 °F (Jul 19, 2:20 PM)100% (Jul 17, 5:20 AM)30.27 "Hg (Jul 17, 5:20 AM)
Low50 °F (Jul 14, 1:50 AM)35% (Jul 19, 1:50 PM)29.68 "Hg (Jul 20, 9:50 AM)
Average66 °F75%30.06 "Hg
* Reported Jul 13 8:20 AM — Jul 28 8:20 AM, Kingston upon Hull, Weather by CustomWeather, © 2016

Note: Actual official high and low records may vary slightly from our data, if they occured in-between our weather recording intervals... More about our weather records

Advertising

Kingston upon Hull Weather History for the Previous 24 Hours

Scroll right to see more
 ConditionsComfort  
Time TempWeatherWind HumidityBarometerVisibility
8:20 AM
Thu, Jul 28
59 °FPassing clouds.5 mph82%29.95 "HgN/A
7:50 AM57 °FPassing clouds.6 mph88%29.95 "HgN/A
7:20 AM55 °FPassing clouds.6 mph94%29.95 "HgN/A
6:50 AM55 °FPassing clouds.6 mph94%29.95 "HgN/A
6:20 AM55 °FScattered clouds.5 mph94%29.95 "HgN/A
5:50 AM54 °FPassing clouds.5 mph94%29.95 "HgN/A
5:20 AM52 °FPassing clouds.3 mph94%29.95 "HgN/A
4:50 AM52 °FPassing clouds.6 mph94%29.95 "HgN/A
4:20 AM54 °FPassing clouds.5 mph94%29.95 "HgN/A
3:50 AM54 °FCool.8 mph94%29.98 "HgN/A
3:20 AM55 °FHaze.6 mph88%29.98 "Hg2 mi
2:50 AM55 °FCool.6 mph88%29.98 "Hg5 mi
2:20 AM55 °FCool.7 mph88%29.98 "Hg6 mi
1:50 AM54 °FHaze.6 mph94%29.98 "Hg1 mi
1:20 AM54 °FCool.6 mph88%29.98 "HgN/A
12:50 AM55 °FCool.7 mph88%29.98 "HgN/A
12:20 AM54 °FCool.5 mph88%29.98 "HgN/A
11:50 PM
Wed, Jul 27
54 °FCool.6 mph88%29.98 "HgN/A
11:20 PM57 °FCool.5 mph77%29.98 "HgN/A
10:50 PM57 °FCool.3 mph82%29.98 "HgN/A
10:20 PM61 °FCool.5 mph72%29.98 "HgN/A
9:50 PM61 °FCool.7 mph72%29.98 "HgN/A
9:20 PM63 °FPassing clouds.7 mph68%29.98 "HgN/A
8:50 PM64 °FPassing clouds.8 mph64%29.98 "HgN/A
8:20 PM66 °FPassing clouds.9 mph60%29.98 "HgN/A
7:50 PM64 °FPassing clouds.6 mph78%29.95 "HgN/A
7:20 PM64 °FScattered clouds.7 mph83%29.95 "HgN/A
6:50 PM64 °FScattered clouds.8 mph83%29.95 "HgN/A
6:20 PM66 °FScattered clouds.9 mph78%29.95 "HgN/A
5:50 PM66 °FScattered clouds.12 mph73%29.95 "HgN/A
5:20 PM66 °FScattered clouds.10 mph78%29.95 "HgN/A
4:50 PM66 °FScattered clouds.9 mph78%29.95 "HgN/A
4:20 PM66 °FScattered clouds.8 mph78%29.95 "HgN/A
3:50 PM64 °FBroken clouds.10 mph83%29.95 "HgN/A
3:20 PM66 °FBroken clouds.12 mph78%29.92 "HgN/A
2:50 PM70 °FBroken clouds.8 mph73%29.92 "HgN/A
2:20 PM70 °FScattered clouds.8 mph69%29.92 "HgN/A
1:50 PM70 °FScattered clouds.6 mph64%29.92 "HgN/A
1:20 PM70 °FScattered clouds.9 mph64%29.92 "HgN/A
12:50 PM70 °FBroken clouds.8 mph64%29.92 "HgN/A
12:20 PM70 °FScattered clouds.8 mph64%29.92 "HgN/A
11:50 AM70 °FScattered clouds.10 mph64%29.92 "HgN/A
11:20 AM68 °FScattered clouds.12 mph73%29.92 "HgN/A
10:50 AM66 °FScattered clouds.10 mph78%29.92 "HgN/A
10:20 AM66 °FScattered showers. Scattered clouds.10 mph83%29.89 "HgN/A
9:50 AM64 °FScattered showers. Scattered clouds.10 mph88%29.89 "HgN/A
9:20 AM64 °FScattered clouds.9 mph88%29.89 "HgN/A
Weather by CustomWeather, © 2016

See weather overviewHow to use our weather pages